QPF
0.00 0.00 0.00 0.01 0.04 0.04 0.05 0.04 0.01 0.00 0.00 0.00 0.00 0.00 0.00 0.00 0.00 0.00 0.00 0.00 0.00 0.00 0.00 0.00 0.00 0.00 0.00 0.00 0.00 0.00 0.00 0.00 0.00 0.00 0.00 0.00 0.00 0.00 0.00 0.00 0.00 0.00 0.00 0.00 0.00 0.00 0.00 0.00 0.00
0.00 0.00 0.00 0.00 0.01 0.02 0.10 0.09 0.02 0.00 0.00 0.00 0.00 0.00 0.00 0.00 0.00 0.00 0.00 0.00 0.00 0.00 0.00 0.00 0.00 0.00 0.00 0.00 0.00 0.00 0.00 0.00 0.01 0.02 0.01 0.01 0.01 0.00 0.00 0.00 0.00 0.00 0.00 0.00 0.00 0.00 0.00 0.00 0.00
0.00 0.00 0.00 0.00 0.00 0.01 0.07 0.06 0.01 0.00 0.00 0.00 0.00 0.00 0.00 0.00 0.00 0.00 0.00 0.00 0.00 0.00 0.00 0.00 0.00 0.00 0.00 0.00 0.00 0.00 0.00 0.01 0.03 0.03 0.01 0.01 0.00 0.00 0.00 0.00 0.00 0.00 0.00 0.00 0.00 0.00 0.00 0.00 0.00
0.00 0.00 0.00 0.00 0.00 0.01 0.04 0.04 0.01 0.00 0.00 0.00 0.00 0.00 0.00 0.00 0.00 0.00 0.00 0.00 0.00 0.00 0.00 0.00 0.00 0.00 0.00 0.00 0.00 0.00 0.00 0.01 0.01 0.02 0.01 0.00 0.00 0.00 0.00 0.00 0.00 0.00 0.00 0.00 0.00 0.00 0.00 0.00 0.00
0.00 0.00 0.00 0.00 0.00 0.01 0.02 0.02 0.02 0.01 0.00 0.00 0.00 0.00 0.00 0.00 0.00 0.00 0.00 0.00 0.00 0.00 0.00 0.00 0.00 0.00 0.00 0.00 0.00 0.00 0.00 0.00 0.01 0.01 0.00 0.00 0.00 0.00 0.00 0.00 0.00 0.00 0.00 0.00 0.00 0.00 0.00 0.00 0.00
0.00 0.00 0.00 0.00 0.00 0.00 0.01 0.02 0.02 0.01 0.00 0.00 0.00 0.00 0.00 0.00 0.00 0.00 0.00 0.00 0.00 0.00 0.00 0.00 0.00 0.00 0.00 0.00 0.00 0.00 0.00 0.00 0.00 0.00 0.00 0.00 0.00 0.00 0.00 0.00 0.00 0.00 0.00 0.00 0.00 0.00 0.00 0.00 0.00
0.00 0.00 0.00 0.00 0.00 0.00 0.01 0.01 0.02 0.01 0.00 0.00 0.00 0.00 0.00 0.00 0.00 0.00 0.00 0.00 0.00 0.00 0.00 0.00 0.00 0.00 0.00 0.00 0.00 0.00 0.00 0.00 0.00 0.00 0.00 0.00 0.00 0.00 0.00 0.00 0.00 0.00 0.00 0.00 0.00 0.00 0.00 0.00 0.00
0.00 0.00 0.00 0.00 0.00 0.00 0.00 0.01 0.02 0.02 0.01 0.00 0.00 0.00 0.00 0.00 0.00 0.00 0.00 0.00 0.00 0.00 0.00 0.00 0.00 0.00 0.00 0.00 0.00 0.00 0.00 0.00 0.00 0.00 0.00 0.00 0.00 0.00 0.00 0.00 0.00 0.00 0.00 0.00 0.00 0.00 0.00 0.00 0.00
0.00 0.00 0.00 0.00 0.00 0.00 0.00 0.02 0.02 0.03 0.04 0.01 0.00 0.00 0.00 0.00 0.00 0.00 0.00 0.00 0.00 0.00 0.00 0.00 0.00 0.00 0.00 0.00 0.00 0.00 0.00 0.00 0.00 0.00 0.00 0.00 0.00 0.00 0.00 0.01 0.00 0.00 0.00 0.00 0.00 0.00 0.00 0.00 0.00
0.00 0.00 0.00 0.00 0.00 0.00 0.01 0.02 0.02 0.02 0.03 0.02 0.00 0.00 0.00 0.00 0.00 0.00 0.00 0.00 0.00 0.00 0.00 0.00 0.00 0.00 0.00 0.00 0.00 0.00 0.00 0.00 0.00 0.00 0.00 0.00 0.00 0.00 0.00 0.00 0.00 0.01 0.01 0.00 0.00 0.00 0.00 0.00 0.00
0.00 0.00 0.00 0.00 0.00 0.00 0.00 0.01 0.01 0.01 0.02 0.01 0.00 0.00 0.00 0.00 0.00 0.00 0.00 0.00 0.00 0.00 0.00 0.00 0.00 0.00 0.00 0.00 0.00 0.00 0.00 0.00 0.00 0.00 0.00 0.00 0.00 0.00 0.00 0.00 0.01 0.01 0.02 0.01 0.00 0.01 0.01 0.00 0.00
0.00 0.00 0.00 0.00 0.00 0.00 0.00 0.00 0.00 0.01 0.01 0.02 0.02 0.02 0.01 0.00 0.00 0.00 0.00 0.00 0.00 0.00 0.00 0.00 0.00 0.00 0.00 0.00 0.00 0.00 0.00 0.00 0.00 0.00 0.00 0.00 0.00 0.00 0.00 0.00 0.01 0.00 0.00 0.00 0.01 0.01 0.01 0.02 0.02
0.00 0.00 0.00 0.00 0.00 0.00 0.00 0.00 0.00 0.00 0.01 0.01 0.03 0.05 0.03 0.00 0.00 0.00 0.00 0.00 0.00 0.00 0.00 0.00 0.00 0.00 0.00 0.00 0.00 0.00 0.00 0.00 0.00 0.00 0.00 0.00 0.00 0.00 0.00 0.00 0.00 0.01 0.01 0.01 0.01 0.01 0.01 0.02 0.02
0.00 0.00 0.00 0.00 0.00 0.00 0.00 0.00 0.00 0.00 0.00 0.01 0.04 0.08 0.07 0.02 0.00 0.00 0.00 0.00 0.00 0.00 0.00 0.00 0.00 0.00 0.00 0.00 0.00 0.00 0.00 0.00 0.00 0.00 0.00 0.00 0.00 0.00 0.00 0.00 0.00 0.00 0.01 0.01 0.01 0.01 0.01 0.02 0.02
0.00 0.00 0.00 0.00 0.00 0.00 0.00 0.00 0.00 0.00 0.00 0.01 0.03 0.07 0.10 0.09 0.04 0.02 0.01 0.00 0.00 0.00 0.00 0.00 0.00 0.00 0.00 0.00 0.00 0.00 0.00 0.00 0.00 0.00 0.00 0.00 0.00 0.00 0.00 0.00 0.00 0.00 0.01 0.01 0.01 0.02 0.02 0.02 0.02
0.00 0.00 0.00 0.00 0.00 0.00 0.00 0.00 0.00 0.00 0.00 0.02 0.06 0.15 0.20 0.15 0.12 0.09 0.05 0.03 0.02 0.01 0.00 0.00 0.00 0.00 0.00 0.00 0.00 0.00 0.00 0.00 0.00 0.00 0.00 0.00 0.00 0.00 0.00 0.00 0.00 0.01 0.01 0.01 0.01 0.02 0.02 0.03 0.02
0.00 0.00 0.00 0.00 0.00 0.00 0.00 0.00 0.00 0.00 0.00 0.02 0.07 0.14 0.18 0.14 0.14 0.13 0.11 0.08 0.07 0.05 0.02 0.01 0.00 0.00 0.00 0.00 0.00 0.00 0.01 0.01 0.01 0.00 0.01 0.00 0.01 0.00 0.01 0.00 0.00 0.01 0.01 0.01 0.02 0.03 0.03 0.04 0.02
0.00 0.00 0.00 0.00 0.00 0.00 0.00 0.00 0.00 0.00 0.01 0.05 0.12 0.16 0.22 0.23 0.28 0.30 0.27 0.20 0.15 0.14 0.08 0.03 0.01 0.01 0.01 0.00 0.01 0.01 0.01 0.01 0.01 0.01 0.02 0.03 0.02 0.02 0.02 0.01 0.01 0.01 0.01 0.02 0.02 0.02 0.03 0.03 0.03
0.00 0.00 0.00 0.00 0.00 0.00 0.00 0.00 0.00 0.00 0.01 0.06 0.16 0.25 0.40 0.51 0.56 0.56 0.47 0.39 0.31 0.20 0.12 0.06 0.03 0.03 0.02 0.01 0.02 0.02 0.02 0.02 0.03 0.04 0.04 0.05 0.04 0.04 0.03 0.02 0.02 0.02 0.02 0.02 0.03 0.04 0.04 0.03 0.05
0.00 0.00 0.00 0.00 0.00 0.00 0.00 0.00 0.00 0.00 0.00 0.01 0.05 0.12 0.22 0.35 0.51 0.58 0.52 0.42 0.32 0.27 0.20 0.16 0.13 0.10 0.06 0.05 0.05 0.04 0.03 0.03 0.05 0.05 0.05 0.05 0.04 0.04 0.05 0.05 0.04 0.04 0.04 0.04 0.04 0.04 0.03 0.03 0.05
0.00 0.00 0.00 0.00 0.00 0.00 0.00 0.00 0.00 0.00 0.00 0.00 0.01 0.02 0.05 0.13 0.24 0.34 0.35 0.29 0.28 0.33 0.33 0.29 0.24 0.18 0.14 0.13 0.12 0.08 0.04 0.03 0.03 0.04 0.04 0.04 0.03 0.04 0.04 0.04 0.04 0.05 0.05 0.04 0.04 0.04 0.04 0.04 0.07
0.00 0.00 0.00 0.00 0.00 0.00 0.00 0.00 0.00 0.00 0.00 0.01 0.01 0.03 0.05 0.07 0.11 0.19 0.28 0.36 0.39 0.35 0.38 0.44 0.40 0.35 0.29 0.24 0.19 0.14 0.10 0.08 0.06 0.05 0.05 0.04 0.03 0.03 0.03 0.03 0.04 0.04 0.04 0.04 0.04 0.06 0.06 0.07 0.09
0.00 0.00 0.00 0.00 0.00 0.00 0.00 0.00 0.00 0.00 0.00 0.01 0.02 0.04 0.07 0.10 0.13 0.19 0.24 0.32 0.41 0.46 0.48 0.47 0.49 0.46 0.43 0.36 0.27 0.23 0.18 0.14 0.10 0.07 0.05 0.03 0.03 0.02 0.02 0.02 0.03 0.04 0.04 0.03 0.04 0.04 0.05 0.06 0.07
0.00 0.00 0.00 0.00 0.00 0.00 0.00 0.00 0.00 0.00 0.01 0.01 0.04 0.07 0.11 0.18 0.22 0.28 0.35 0.36 0.38 0.46 0.57 0.54 0.49 0.41 0.36 0.32 0.27 0.23 0.21 0.19 0.15 0.11 0.08 0.06 0.04 0.03 0.03 0.03 0.03 0.04 0.04 0.03 0.03 0.04 0.05 0.06 0.07
0.00 0.00 0.00 0.00 0.00 0.00 0.00 0.00 0.03 0.03 0.03 0.04 0.07 0.11 0.18 0.26 0.30 0.29 0.36 0.41 0.38 0.34 0.35 0.35 0.34 0.34 0.31 0.29 0.28 0.25 0.21 0.19 0.14 0.10 0.08 0.05 0.04 0.03 0.03 0.03 0.03 0.04 0.04 0.04 0.05 0.05 0.07 0.08 0.09
0.01 0.01 0.03 0.03 0.01 0.00 0.00 0.02 0.09 0.11 0.12 0.12 0.13 0.16 0.21 0.22 0.24 0.24 0.24 0.23 0.23 0.22 0.22 0.26 0.28 0.29 0.26 0.25 0.23 0.20 0.18 0.15 0.11 0.07 0.05 0.04 0.03 0.02 0.01 0.02 0.03 0.03 0.05 0.06 0.06 0.07 0.08 0.10 0.12
0.01 0.01 0.02 0.04 0.03 0.02 0.00 0.02 0.08 0.11 0.17 0.22 0.27 0.27 0.26 0.22 0.18 0.17 0.18 0.18 0.15 0.14 0.14 0.16 0.17 0.18 0.18 0.16 0.16 0.15 0.13 0.10 0.08 0.06 0.04 0.02 0.01 0.00 0.01 0.01 0.02 0.03 0.04 0.04 0.05 0.05 0.06 0.08 0.09
0.01 0.01 0.03 0.07 0.08 0.06 0.02 0.01 0.07 0.15 0.18 0.24 0.37 0.40 0.32 0.23 0.17 0.13 0.11 0.12 0.10 0.09 0.10 0.11 0.14 0.17 0.18 0.15 0.14 0.11 0.08 0.06 0.05 0.04 0.02 0.01 0.00 0.00 0.00 0.00 0.00 0.01 0.01 0.01 0.01 0.02 0.02 0.03 0.04
0.01 0.02 0.04 0.06 0.09 0.11 0.10 0.07 0.08 0.16 0.21 0.23 0.24 0.25 0.25 0.21 0.14 0.10 0.09 0.09 0.08 0.07 0.09 0.12 0.15 0.17 0.17 0.13 0.10 0.08 0.06 0.04 0.03 0.02 0.01 0.01 0.00 0.00 0.00 0.00 0.00 0.00 0.00 0.00 0.00 0.01 0.01 0.01 0.01
0.00 0.01 0.02 0.04 0.07 0.10 0.13 0.12 0.10 0.15 0.20 0.23 0.25 0.22 0.19 0.15 0.11 0.08 0.06 0.05 0.05 0.06 0.07 0.11 0.14 0.16 0.15 0.12 0.09 0.05 0.04 0.03 0.02 0.01 0.01 0.00 0.00 0.00 0.00 0.00 0.00 0.00 0.00 0.00 0.00 0.00 0.00 0.00 0.01
MSLP
1009.86 1010.78 1011.79 1012.68 1013.28 1013.47 1013.23 1012.65 1011.89 1011.14 1010.60 1010.39 1010.57 1011.08 1011.79 1012.54 1013.15 1013.52 1013.61 1013.44 1013.13 1012.81 1012.60 1012.58 1012.79 1013.19 1013.68 1014.17 1014.58 1014.86 1015.00 1015.03 1015.02 1015.03 1015.11 1015.28 1015.52 1015.80 1016.06 1016.28 1016.41 1016.47 1016.47 1016.45 1016.44 1016.46 1016.51 1016.60 1016.69
1010.22 1011.28 1012.34 1013.18 1013.64 1013.64 1013.18 1012.39 1011.44 1010.56 1009.93 1009.69 1009.85 1010.35 1011.07 1011.82 1012.45 1012.84 1012.97 1012.88 1012.67 1012.46 1012.36 1012.44 1012.71 1013.13 1013.62 1014.09 1014.47 1014.72 1014.85 1014.90 1014.92 1014.97 1015.09 1015.28 1015.53 1015.78 1016.01 1016.18 1016.28 1016.32 1016.32 1016.31 1016.33 1016.37 1016.45 1016.55 1016.65
1010.71 1011.86 1012.91 1013.66 1013.96 1013.76 1013.10 1012.14 1011.06 1010.10 1009.45 1009.20 1009.37 1009.89 1010.60 1011.33 1011.95 1012.34 1012.50 1012.46 1012.33 1012.22 1012.22 1012.38 1012.71 1013.14 1013.62 1014.05 1014.39 1014.62 1014.73 1014.79 1014.84 1014.92 1015.06 1015.26 1015.48 1015.70 1015.88 1016.00 1016.06 1016.08 1016.09 1016.12 1016.17 1016.26 1016.38 1016.50 1016.61
1011.31 1012.48 1013.46 1014.07 1014.19 1013.81 1012.99 1011.90 1010.77 1009.80 1009.18 1008.97 1009.18 1009.70 1010.39 1011.10 1011.68 1012.05 1012.21 1012.21 1012.15 1012.12 1012.21 1012.43 1012.79 1013.23 1013.68 1014.07 1014.36 1014.55 1014.65 1014.71 1014.78 1014.88 1015.04 1015.23 1015.43 1015.60 1015.73 1015.80 1015.82 1015.83 1015.86 1015.92 1016.02 1016.17 1016.33 1016.48 1016.59
1011.97 1013.08 1013.93 1014.36 1014.30 1013.74 1012.81 1011.67 1010.54 1009.63 1009.08 1008.95 1009.21 1009.75 1010.42 1011.08 1011.61 1011.94 1012.09 1012.12 1012.11 1012.15 1012.30 1012.58 1012.96 1013.38 1013.78 1014.12 1014.35 1014.50 1014.58 1014.64 1014.73 1014.86 1015.02 1015.21 1015.39 1015.52 1015.60 1015.62 1015.62 1015.62 1015.67 1015.76 1015.92 1016.11 1016.31 1016.48 1016.60
1012.60 1013.58 1014.24 1014.47 1014.22 1013.52 1012.51 1011.38 1010.31 1009.52 1009.09 1009.06 1009.38 1009.93 1010.58 1011.18 1011.65 1011.94 1012.07 1012.12 1012.16 1012.26 1012.47 1012.78 1013.16 1013.55 1013.90 1014.17 1014.34 1014.44 1014.50 1014.57 1014.67 1014.83 1015.02 1015.21 1015.37 1015.48 1015.52 1015.51 1015.48 1015.49 1015.54 1015.67 1015.86 1016.09 1016.31 1016.49 1016.61
1013.11 1013.90 1014.34 1014.35 1013.92 1013.11 1012.07 1010.99 1010.04 1009.38 1009.10 1009.18 1009.57 1010.13 1010.74 1011.29 1011.70 1011.94 1012.07 1012.14 1012.23 1012.39 1012.65 1012.98 1013.36 1013.71 1013.99 1014.18 1014.29 1014.34 1014.39 1014.46 1014.60 1014.79 1015.01 1015.22 1015.38 1015.48 1015.49 1015.46 1015.42 1015.41 1015.47 1015.62 1015.83 1016.07 1016.30 1016.47 1016.56
1013.43 1013.99 1014.19 1013.99 1013.40 1012.52 1011.49 1010.49 1009.68 1009.18 1009.04 1009.23 1009.67 1010.23 1010.81 1011.30 1011.66 1011.88 1012.01 1012.12 1012.26 1012.48 1012.79 1013.14 1013.50 1013.81 1014.03 1014.15 1014.19 1014.20 1014.23 1014.32 1014.48 1014.71 1014.97 1015.21 1015.39 1015.49 1015.49 1015.44 1015.39 1015.37 1015.43 1015.57 1015.78 1016.02 1016.23 1016.39 1016.45
1013.51 1013.84 1013.82 1013.43 1012.72 1011.80 1010.81 1009.92 1009.25 1008.90 1008.89 1009.16 1009.63 1010.19 1010.73 1011.17 1011.49 1011.70 1011.86 1012.02 1012.23 1012.52 1012.87 1013.24 1013.59 1013.85 1014.00 1014.06 1014.05 1014.02 1014.04 1014.14 1014.33 1014.60 1014.90 1015.17 1015.37 1015.47 1015.48 1015.42 1015.35 1015.32 1015.36 1015.49 1015.68 1015.90 1016.10 1016.22 1016.25
1013.41 1013.53 1013.31 1012.77 1011.98 1011.05 1010.13 1009.34 1008.81 1008.59 1008.67 1008.99 1009.48 1010.01 1010.50 1010.91 1011.21 1011.43 1011.62 1011.84 1012.13 1012.48 1012.88 1013.28 1013.61 1013.83 1013.94 1013.94 1013.88 1013.82 1013.83 1013.94 1014.15 1014.45 1014.78 1015.08 1015.29 1015.40 1015.41 1015.35 1015.27 1015.23 1015.25 1015.36 1015.53 1015.72 1015.89 1015.98 1015.98
1013.18 1013.13 1012.77 1012.13 1011.30 1010.40 1009.55 1008.87 1008.44 1008.31 1008.45 1008.79 1009.25 1009.74 1010.19 1010.56 1010.85 1011.09 1011.34 1011.63 1011.99 1012.41 1012.85 1013.26 1013.58 1013.78 1013.85 1013.81 1013.71 1013.63 1013.63 1013.73 1013.95 1014.26 1014.60 1014.91 1015.13 1015.25 1015.27 1015.21 1015.13 1015.08 1015.09 1015.18 1015.33 1015.49 1015.63 1015.70 1015.68
1012.95 1012.78 1012.32 1011.64 1010.81 1009.95 1009.18 1008.59 1008.23 1008.15 1008.30 1008.61 1009.03 1009.46 1009.86 1010.20 1010.48 1010.76 1011.05 1011.41 1011.83 1012.30 1012.78 1013.20 1013.52 1013.70 1013.74 1013.68 1013.57 1013.47 1013.45 1013.54 1013.75 1014.04 1014.37 1014.67 1014.89 1015.01 1015.04 1014.99 1014.92 1014.88 1014.90 1014.98 1015.11 1015.26 1015.37 1015.42 1015.38
1012.82 1012.57 1012.07 1011.38 1010.58 1009.78 1009.07 1008.54 1008.22 1008.14 1008.26 1008.52 1008.86 1009.23 1009.57 1009.88 1010.17 1010.46 1010.80 1011.21 1011.67 1012.18 1012.67 1013.11 1013.42 1013.60 1013.63 1013.57 1013.45 1013.34 1013.30 1013.37 1013.55 1013.81 1014.10 1014.37 1014.58 1014.70 1014.74 1014.72 1014.68 1014.66 1014.69 1014.78 1014.91 1015.04 1015.15 1015.18 1015.13
1012.86 1012.57 1012.06 1011.38 1010.63 1009.88 1009.23 1008.72 1008.41 1008.30 1008.35 1008.53 1008.79 1009.07 1009.36 1009.64 1009.92 1010.24 1010.60 1011.03 1011.51 1012.02 1012.52 1012.95 1013.26 1013.44 1013.49 1013.44 1013.34 1013.24 1013.19 1013.23 1013.36 1013.56 1013.80 1014.03 1014.22 1014.34 1014.40 1014.43 1014.43 1014.46 1014.52 1014.62 1014.76 1014.88 1014.97 1015.00 1014.93
1013.07 1012.76 1012.25 1011.60 1010.90 1010.20 1009.57 1009.08 1008.74 1008.56 1008.53 1008.62 1008.78 1008.99 1009.23 1009.48 1009.76 1010.07 1010.44 1010.86 1011.33 1011.82 1012.29 1012.70 1013.02 1013.22 1013.30 1013.29 1013.23 1013.15 1013.10 1013.11 1013.19 1013.33 1013.50 1013.68 1013.84 1013.97 1014.06 1014.14 1014.21 1014.29 1014.40 1014.53 1014.66 1014.79 1014.86 1014.86 1014.78
1013.39 1013.06 1012.56 1011.95 1011.29 1010.62 1010.02 1009.50 1009.12 1008.87 1008.74 1008.73 1008.82 1008.96 1009.15 1009.38 1009.64 1009.95 1010.29 1010.68 1011.10 1011.54 1011.97 1012.35 1012.67 1012.90 1013.03 1013.08 1013.08 1013.04 1013.01 1013.00 1013.04 1013.11 1013.22 1013.35 1013.48 1013.62 1013.75 1013.88 1014.02 1014.17 1014.33 1014.49 1014.63 1014.74 1014.79 1014.77 1014.67
1013.71 1013.37 1012.89 1012.32 1011.70 1011.07 1010.47 1009.93 1009.49 1009.16 1008.96 1008.86 1008.87 1008.97 1009.13 1009.34 1009.58 1009.86 1010.16 1010.49 1010.83 1011.20 1011.56 1011.91 1012.22 1012.48 1012.68 1012.81 1012.89 1012.91 1012.91 1012.90 1012.90 1012.92 1012.97 1013.05 1013.16 1013.31 1013.48 1013.68 1013.89 1014.10 1014.30 1014.48 1014.62 1014.71 1014.74 1014.69 1014.56
1013.93 1013.59 1013.15 1012.63 1012.06 1011.47 1010.88 1010.33 1009.84 1009.45 1009.17 1009.01 1008.97 1009.03 1009.17 1009.37 1009.59 1009.83 1010.07 1010.31 1010.56 1010.82 1011.10 1011.40 1011.70 1011.99 1012.26 1012.48 1012.65 1012.75 1012.80 1012.80 1012.78 1012.76 1012.76 1012.81 1012.90 1013.06 1013.27 1013.52 1013.79 1014.06 1014.30 1014.49 1014.62 1014.68 1014.67 1014.59 1014.44
1013.96 1013.66 1013.29 1012.85 1012.37 1011.84 1011.29 1010.73 1010.22 1009.78 1009.45 1009.24 1009.16 1009.20 1009.33 1009.51 1009.71 1009.90 1010.06 1010.20 1010.33 1010.48 1010.65 1010.88 1011.16 1011.47 1011.80 1012.12 1012.38 1012.57 1012.68 1012.72 1012.69 1012.65 1012.62 1012.63 1012.72 1012.88 1013.12 1013.41 1013.73 1014.03 1014.29 1014.48 1014.59 1014.62 1014.57 1014.46 1014.31
1013.81 1013.59 1013.34 1013.03 1012.67 1012.24 1011.75 1011.23 1010.71 1010.24 1009.87 1009.63 1009.53 1009.55 1009.67 1009.83 1010.00 1010.13 1010.20 1010.23 1010.22 1010.23 1010.29 1010.42 1010.66 1010.98 1011.36 1011.75 1012.10 1012.39 1012.57 1012.65 1012.64 1012.59 1012.54 1012.53 1012.60 1012.76 1013.02 1013.33 1013.67 1013.99 1014.25 1014.42 1014.51 1014.50 1014.43 1014.30 1014.15
1013.53 1013.45 1013.37 1013.25 1013.06 1012.77 1012.38 1011.91 1011.41 1010.93 1010.53 1010.26 1010.13 1010.14 1010.24 1010.38 1010.50 1010.56 1010.53 1010.43 1010.28 1010.14 1010.06 1010.09 1010.26 1010.57 1010.97 1011.42 1011.85 1012.21 1012.47 1012.60 1012.62 1012.58 1012.52 1012.50 1012.56 1012.71 1012.96 1013.28 1013.61 1013.92 1014.16 1014.31 1014.36 1014.33 1014.23 1014.10 1013.96
1013.23 1013.36 1013.51 1013.62 1013.64 1013.52 1013.26 1012.86 1012.39 1011.90 1011.48 1011.17 1011.01 1010.98 1011.04 1011.14 1011.20 1011.18 1011.05 1010.82 1010.52 1010.23 1010.01 1009.92 1010.00 1010.26 1010.66 1011.14 1011.63 1012.06 1012.38 1012.57 1012.63 1012.61 1012.56 1012.53 1012.57 1012.71 1012.93 1013.23 1013.54 1013.82 1014.02 1014.14 1014.15 1014.09 1013.98 1013.85 1013.75
1013.06 1013.44 1013.85 1014.22 1014.47 1014.53 1014.40 1014.08 1013.63 1013.13 1012.67 1012.31 1012.09 1012.00 1012.01 1012.05 1012.05 1011.94 1011.71 1011.35 1010.92 1010.47 1010.11 1009.89 1009.88 1010.07 1010.44 1010.93 1011.45 1011.93 1012.31 1012.55 1012.66 1012.67 1012.63 1012.60 1012.63 1012.74 1012.93 1013.18 1013.44 1013.68 1013.84 1013.91 1013.89 1013.80 1013.68 1013.57 1013.50
1013.13 1013.75 1014.43 1015.05 1015.51 1015.75 1015.72 1015.46 1015.02 1014.49 1013.97 1013.54 1013.25 1013.09 1013.03 1013.00 1012.92 1012.74 1012.41 1011.95 1011.39 1010.82 1010.33 1009.99 1009.87 1009.99 1010.31 1010.77 1011.30 1011.82 1012.24 1012.54 1012.70 1012.75 1012.73 1012.71 1012.72 1012.80 1012.94 1013.14 1013.34 1013.52 1013.62 1013.65 1013.59 1013.49 1013.36 1013.27 1013.23
1013.46 1014.32 1015.23 1016.06 1016.69 1017.04 1017.09 1016.85 1016.39 1015.81 1015.22 1014.70 1014.32 1014.08 1013.94 1013.84 1013.70 1013.44 1013.05 1012.50 1011.86 1011.20 1010.60 1010.17 1009.95 1009.99 1010.25 1010.68 1011.20 1011.73 1012.19 1012.53 1012.74 1012.83 1012.85 1012.83 1012.83 1012.88 1012.98 1013.11 1013.25 1013.35 1013.40 1013.38 1013.29 1013.17 1013.04 1012.95 1012.93
1014.06 1015.09 1016.15 1017.10 1017.83 1018.24 1018.30 1018.04 1017.53 1016.88 1016.20 1015.60 1015.13 1014.81 1014.60 1014.44 1014.25 1013.95 1013.52 1012.94 1012.26 1011.54 1010.89 1010.38 1010.10 1010.06 1010.26 1010.64 1011.14 1011.67 1012.15 1012.53 1012.78 1012.92 1012.96 1012.97 1012.96 1012.98 1013.03 1013.10 1013.17 1013.22 1013.21 1013.14 1013.03 1012.89 1012.76 1012.67 1012.65
1014.82 1015.93 1017.05 1018.03 1018.76 1019.15 1019.17 1018.85 1018.27 1017.55 1016.79 1016.11 1015.56 1015.17 1014.91 1014.71 1014.51 1014.21 1013.78 1013.21 1012.53 1011.82 1011.16 1010.62 1010.29 1010.20 1010.35 1010.69 1011.15 1011.66 1012.14 1012.54 1012.83 1013.00 1013.09 1013.11 1013.11 1013.10 1013.12 1013.14 1013.15 1013.13 1013.08 1012.98 1012.84 1012.68 1012.55 1012.46 1012.43
1015.62 1016.71 1017.78 1018.70 1019.34 1019.64 1019.57 1019.17 1018.51 1017.72 1016.90 1016.17 1015.58 1015.16 1014.88 1014.68 1014.48 1014.21 1013.83 1013.32 1012.70 1012.04 1011.41 1010.89 1010.56 1010.44 1010.54 1010.82 1011.24 1011.71 1012.18 1012.59 1012.89 1013.10 1013.21 1013.26 1013.26 1013.25 1013.24 1013.23 1013.19 1013.14 1013.04 1012.92 1012.76 1012.60 1012.46 1012.36 1012.33
1016.29 1017.28 1018.21 1018.97 1019.46 1019.62 1019.44 1018.95 1018.24 1017.41 1016.58 1015.84 1015.25 1014.84 1014.57 1014.40 1014.25 1014.04 1013.74 1013.32 1012.80 1012.23 1011.68 1011.21 1010.90 1010.77 1010.84 1011.07 1011.43 1011.86 1012.29 1012.68 1012.99 1013.21 1013.34 1013.41 1013.44 1013.43 1013.41 1013.38 1013.32 1013.24 1013.13 1012.99 1012.83 1012.67 1012.53 1012.43 1012.37
1016.74 1017.55 1018.28 1018.84 1019.14 1019.14 1018.85 1018.29 1017.56 1016.74 1015.95 1015.26 1014.72 1014.36 1014.14 1014.02 1013.93 1013.81 1013.60 1013.29 1012.90 1012.44 1011.99 1011.60 1011.33 1011.21 1011.25 1011.44 1011.73 1012.09 1012.47 1012.82 1013.11 1013.33 1013.48 1013.58 1013.62 1013.64 1013.63 1013.59 1013.53 1013.45 1013.33 1013.19 1013.04 1012.89 1012.75 1012.65 1012.57
Thickness
5844 5844 5842 5831 5812 5797 5798 5817 5834 5841 5843 5850 5855 5847 5835 5826 5816 5804 5826 5831 5829 5824 5820 5818 5815 5812 5809 5806 5804 5802 5800 5798 5797 5794 5792 5790 5788 5786 5784 5782 5779 5777 5775 5773 5771 5769 5767 5765 5763
5845 5845 5835 5818 5799 5783 5795 5821 5832 5843 5850 5858 5856 5849 5838 5828 5832 5827 5828 5830 5830 5826 5822 5819 5817 5814 5811 5808 5806 5804 5802 5800 5798 5796 5793 5791 5789 5787 5785 5783 5781 5778 5776 5774 5772 5770 5768 5766 5764
5846 5843 5822 5807 5797 5792 5804 5828 5838 5850 5861 5862 5851 5849 5840 5831 5833 5832 5834 5833 5830 5826 5823 5821 5818 5815 5812 5809 5807 5805 5803 5801 5799 5797 5794 5792 5790 5788 5786 5784 5782 5779 5777 5775 5773 5771 5769 5767 5765
5841 5828 5816 5798 5796 5815 5827 5839 5848 5849 5853 5857 5851 5839 5843 5850 5846 5840 5838 5835 5830 5826 5823 5821 5818 5816 5813 5810 5808 5806 5804 5802 5799 5797 5795 5793 5790 5788 5787 5785 5783 5781 5779 5776 5774 5772 5770 5768 5766
5835 5814 5797 5788 5802 5828 5844 5852 5855 5848 5847 5849 5848 5832 5833 5849 5852 5845 5840 5836 5831 5826 5823 5821 5818 5815 5813 5810 5808 5806 5804 5802 5800 5797 5795 5793 5791 5789 5787 5785 5783 5781 5779 5777 5775 5773 5771 5769 5767
5818 5805 5784 5781 5803 5829 5846 5855 5854 5844 5842 5844 5842 5830 5830 5846 5845 5842 5841 5836 5833 5828 5824 5821 5818 5815 5812 5810 5808 5806 5804 5802 5800 5797 5795 5793 5791 5789 5787 5785 5783 5781 5779 5777 5775 5773 5771 5769 5767
5810 5798 5787 5795 5804 5820 5843 5855 5850 5843 5840 5844 5847 5827 5829 5839 5846 5843 5840 5836 5831 5827 5824 5821 5818 5815 5812 5810 5808 5806 5804 5802 5800 5798 5795 5793 5791 5789 5787 5785 5783 5781 5779 5777 5775 5774 5772 5770 5768
5821 5800 5791 5794 5803 5816 5844 5853 5854 5849 5844 5854 5852 5829 5824 5840 5848 5842 5835 5832 5828 5825 5823 5820 5818 5816 5813 5810 5808 5806 5804 5802 5800 5797 5795 5793 5791 5789 5786 5784 5783 5781 5779 5777 5775 5774 5772 5770 5768
5828 5792 5780 5794 5806 5818 5841 5844 5850 5858 5852 5852 5855 5848 5848 5849 5846 5836 5827 5823 5822 5820 5820 5819 5817 5815 5812 5809 5807 5805 5803 5801 5799 5797 5794 5792 5790 5788 5786 5784 5783 5781 5779 5777 5775 5774 5772 5770 5769
5809 5784 5793 5814 5824 5825 5835 5841 5847 5844 5839 5840 5843 5847 5849 5845 5839 5831 5824 5819 5818 5816 5817 5817 5815 5813 5811 5809 5807 5804 5802 5800 5798 5796 5794 5791 5789 5787 5785 5784 5782 5780 5779 5777 5775 5773 5771 5769 5768
5809 5800 5813 5823 5832 5833 5833 5840 5850 5839 5830 5837 5838 5840 5842 5839 5834 5830 5826 5823 5821 5819 5817 5816 5814 5812 5810 5808 5806 5803 5800 5798 5796 5795 5793 5790 5787 5786 5784 5783 5781 5780 5778 5776 5774 5771 5770 5768 5767
5806 5813 5821 5826 5834 5834 5835 5840 5841 5842 5845 5855 5855 5851 5844 5838 5834 5831 5827 5824 5822 5818 5817 5817 5815 5812 5809 5808 5805 5802 5799 5797 5795 5794 5792 5790 5787 5785 5783 5782 5781 5779 5777 5774 5772 5769 5768 5767 5765
5800 5809 5823 5829 5831 5834 5838 5837 5839 5842 5855 5855 5851 5847 5842 5839 5835 5834 5832 5828 5824 5819 5817 5816 5815 5811 5809 5807 5804 5802 5799 5797 5795 5793 5792 5790 5788 5786 5784 5783 5781 5778 5775 5772 5770 5767 5765 5764 5763
5802 5810 5817 5824 5827 5834 5831 5834 5835 5838 5848 5844 5841 5838 5838 5836 5834 5831 5827 5824 5822 5821 5818 5817 5814 5812 5808 5806 5803 5802 5800 5797 5794 5792 5791 5790 5788 5787 5784 5782 5779 5776 5773 5771 5768 5766 5764 5762 5761
5803 5797 5803 5816 5822 5828 5827 5817 5827 5836 5839 5833 5832 5832 5831 5831 5830 5828 5825 5823 5822 5820 5818 5814 5813 5811 5808 5805 5802 5801 5800 5798 5795 5792 5790 5789 5787 5785 5782 5779 5776 5774 5772 5769 5767 5764 5762 5759 5758
5785 5777 5774 5800 5816 5822 5809 5791 5823 5832 5828 5822 5823 5823 5821 5820 5823 5824 5823 5821 5820 5817 5814 5811 5810 5807 5804 5802 5800 5799 5797 5795 5793 5791 5788 5786 5784 5782 5779 5775 5773 5771 5768 5766 5763 5760 5757 5755 5754
5756 5750 5759 5780 5806 5808 5799 5789 5817 5825 5820 5814 5814 5813 5811 5810 5814 5819 5819 5817 5816 5813 5808 5804 5804 5801 5799 5798 5796 5794 5792 5790 5789 5787 5785 5782 5780 5777 5775 5772 5769 5767 5764 5761 5759 5756 5753 5751 5750
5735 5743 5751 5761 5786 5791 5784 5787 5808 5818 5814 5809 5807 5805 5803 5803 5805 5812 5815 5814 5812 5809 5803 5800 5798 5796 5794 5792 5789 5786 5784 5783 5782 5781 5780 5778 5775 5773 5770 5767 5765 5762 5758 5755 5754 5751 5749 5747 5746
5745 5743 5744 5760 5784 5781 5776 5782 5799 5810 5808 5801 5797 5797 5797 5797 5801 5805 5805 5806 5804 5801 5798 5796 5792 5790 5788 5784 5779 5775 5774 5774 5774 5774 5774 5773 5770 5768 5765 5762 5759 5756 5753 5750 5749 5746 5743 5741 5742
5749 5742 5744 5760 5779 5778 5772 5779 5796 5803 5803 5803 5797 5795 5794 5791 5793 5797 5799 5801 5798 5793 5790 5789 5785 5783 5782 5780 5776 5772 5770 5769 5769 5768 5767 5766 5764 5762 5760 5757 5753 5751 5747 5744 5742 5740 5736 5735 5735
5746 5742 5743 5747 5763 5770 5765 5760 5776 5789 5796 5794 5793 5790 5788 5786 5785 5787 5790 5791 5789 5785 5783 5781 5777 5775 5774 5771 5767 5765 5763 5761 5759 5758 5758 5758 5757 5756 5753 5751 5748 5745 5741 5738 5736 5733 5730 5726 5727
5731 5750 5751 5748 5737 5730 5745 5722 5754 5768 5770 5771 5770 5769 5769 5769 5770 5773 5775 5776 5776 5776 5777 5776 5772 5768 5764 5761 5758 5755 5752 5749 5751 5751 5751 5751 5750 5749 5747 5744 5741 5738 5735 5732 5730 5728 5725 5721 5719
5739 5752 5747 5743 5730 5722 5730 5720 5731 5748 5746 5748 5751 5753 5753 5753 5755 5756 5759 5761 5762 5764 5765 5764 5762 5758 5756 5753 5752 5749 5746 5746 5746 5745 5744 5743 5742 5741 5740 5737 5734 5731 5728 5725 5723 5720 5718 5715 5713
5744 5737 5729 5719 5707 5693 5713 5712 5710 5725 5731 5734 5735 5736 5737 5738 5739 5741 5745 5748 5750 5753 5753 5751 5748 5747 5747 5747 5747 5745 5741 5740 5738 5737 5735 5734 5733 5733 5731 5729 5726 5723 5720 5717 5715 5713 5710 5708 5707
5724 5697 5676 5673 5667 5674 5704 5704 5702 5716 5720 5720 5718 5718 5719 5721 5724 5725 5727 5731 5736 5739 5742 5742 5740 5737 5738 5739 5739 5737 5736 5734 5732 5730 5729 5726 5724 5722 5721 5719 5717 5714 5712 5710 5707 5705 5703 5702 5700
5711 5694 5665 5653 5652 5665 5690 5688 5695 5702 5703 5704 5704 5704 5705 5706 5708 5710 5712 5717 5723 5726 5729 5729 5729 5728 5729 5730 5730 5730 5729 5728 5725 5724 5721 5718 5715 5713 5712 5710 5708 5706 5703 5701 5699 5697 5696 5695 5694
5702 5687 5684 5664 5659 5654 5666 5683 5685 5690 5688 5688 5688 5688 5688 5691 5693 5696 5699 5702 5710 5712 5715 5717 5718 5719 5720 5720 5719 5718 5718 5717 5715 5712 5710 5707 5705 5703 5701 5699 5698 5696 5694 5693 5691 5689 5688 5688 5687
5699 5685 5665 5652 5640 5632 5646 5657 5658 5670 5672 5673 5673 5673 5674 5676 5678 5681 5685 5689 5697 5700 5702 5705 5706 5707 5707 5707 5706 5705 5704 5704 5702 5700 5697 5695 5694 5692 5690 5689 5687 5686 5685 5684 5682 5680 5680 5679 5679
5684 5672 5657 5642 5639 5626 5620 5635 5665 5662 5663 5661 5662 5663 5664 5664 5664 5667 5670 5676 5681 5684 5687 5690 5690 5692 5693 5693 5693 5691 5690 5690 5689 5687 5685 5684 5683 5682 5680 5679 5677 5676 5675 5674 5673 5673 5673 5672 5671
5687 5672 5655 5637 5629 5625 5613 5624 5661 5657 5654 5652 5651 5653 5653 5653 5653 5654 5658 5662 5666 5669 5672 5674 5676 5678 5679 5680 5679 5678 5678 5677 5676 5675 5674 5674 5672 5672 5671 5670 5668 5666 5665 5664 5664 5664 5665 5664 5664